This is the latest recevied weather packets stored in our database for station/object W7BTL. If no packets are shown the sender has not sent any weather packets the latest 10 day(s).
| Time | Temp. | Humidity | Pressure | Rain* | Wind** | Luminosity | Snow |
|---|---|---|---|---|---|---|---|
| 1787860717 | 35° C | 48% | 1011.2 hPa | 0 mm | - | 855 W/m² | - |
| 1787860412 | 33.89° C | 52% | 1011.2 hPa | 0 mm | - | 629 W/m² | - |
| 1787860112 | 34.44° C | 49% | 1011.3 hPa | 0 mm | - | 398 W/m² | - |
| 1787859807 | 34.44° C | 47% | 1011.4 hPa | 0 mm | - | 490 W/m² | - |
| 1787859507 | 33.89° C | 50% | 1011.5 hPa | 0 mm | - | 609 W/m² | - |
| 1787859202 | 33.33° C | 50% | 1011.7 hPa | 0 mm | - | 935 W/m² | - |
| 1787858899 | 33.33° C | 50% | 1011.7 hPa | 0 mm | - | 796 W/m² | - |
| 1787858595 | 33.89° C | 49% | 1011.6 hPa | 0 mm | - | 739 W/m² | - |
| 1787858295 | 33.33° C | 50% | 1011.9 hPa | 0 mm | - | 778 W/m² | - |
| 1787857990 | 32.78° C | 51% | 1011.9 hPa | 0 mm | - | 1080 W/m² | - |
| 1787857686 | 32.78° C | 53% | 1011.8 hPa | 0 mm | - | 1126 W/m² | - |
| 1787857381 | 32.78° C | 53% | 1012 hPa | 0 mm | - | 407 W/m² | - |
| 1787857079 | 32.78° C | 55% | 1012 hPa | 0 mm | - | 1051 W/m² | - |
| 1787856774 | 32.78° C | 53% | 1012.1 hPa | 0 mm | - | 492 W/m² | - |
| 1787856474 | 32.22° C | 57% | 1012.3 hPa | 0 mm | - | 1125 W/m² | - |
| 1787856170 | 32.22° C | 58% | 1012.3 hPa | 0 mm | - | 1080 W/m² | - |
| 1787855870 | 31.67° C | 60% | 1012.4 hPa | 0 mm | - | 812 W/m² | - |
| 1787855565 | 31.67° C | 60% | 1012.2 hPa | 0 mm | - | 934 W/m² | - |
| 1787855260 | 31.67° C | 60% | 1012.3 hPa | 0 mm | - | 890 W/m² | - |
| 1787854956 | 31.11° C | 62% | 1012.2 hPa | 0 mm | - | 882 W/m² | - |
| 1787854652 | 31.67° C | 61% | 1012.2 hPa | 0 mm | - | 875 W/m² | - |
| 1787854351 | 31.67° C | 60% | 1012.3 hPa | 0 mm | - | 888 W/m² | - |
| 1787854046 | 31.67° C | 61% | 1012.4 hPa | 0 mm | - | 901 W/m² | - |
| 1787853745 | 31.67° C | 63% | 1012.3 hPa | 0 mm | - | 862 W/m² | - |
| 1787853144 | 31.67° C | 60% | 1012.1 hPa | 0 mm | - | 511 W/m² | - |
* Rain latest hour (hover to see other rain measurements)
** Current wind speed in m/s (hover to see current wind gust speed)